FW3178 Weather Reports


time (UTC)temp
F
wind
direction
speed
knots
gust
knots
rain 1hr
in
rain 24hr
in
rain mn
in
humidity
%
barometer
mb
20260507014503 79 5 0.0 0.0 0.00 0.00 0.00 20 1011.4
20260507013004 80 5 0.0 0.0 0.00 0.00 0.00 20 1011.4
20260507011506 80 5 0.0 0.0 0.00 0.00 0.00 19 1011.4
20260507010002 81 5 0.0 0.0 0.00 0.00 0.00 19 1011.3
20260507004500 81 5 0.0 0.0 0.00 0.00 0.00 19 1011.4
20260507003059 81 5 0.0 0.0 0.00 0.00 0.00 20 1011.4
20260507001606 82 5 0.0 0.0 0.00 0.00 0.00 19 1011.3
20260507000058 81 5 0.0 0.0 0.00 0.00 0.00 20 1011.5
20260506234621 81 5 0.0 0.0 0.00 0.00 0.00 19 1011.5
20260506233054 81 5 0.0 0.0 0.00 0.00 0.00 20 1011.5
20260506231554 80 30 0.0 0.0 0.00 0.00 0.00 20 1011.8
20260506230050 81 17 0.0 0.0 0.00 0.00 0.00 20 1011.8
20260506224549 81 13 0.0 0.0 0.00 0.00 0.00 20 1011.9
20260506223050 81 12 0.0 0.0 0.00 0.00 0.00 21 1012.2
20260506221543 80 11 0.0 0.0 0.00 0.00 0.00 22 1012.4
20260506220041 80 5 0.0 0.0 0.00 0.00 0.00 24 1012.7
20260506214542 79 5 0.0 0.0 0.00 0.00 0.00 24 1012.8
20260506213036 79 318 0.0 0.0 0.00 0.00 0.00 26 1013.1
20260506211533 78 317 0.0 0.0 0.00 0.00 0.00 26 1013.2
20260506210037 78 312 0.0 0.0 0.00 0.00 0.00 26 1013.4
20260506204547 78 302 0.0 0.0 0.00 0.00 0.00 26 1013.5
20260506203032 78 301 0.0 0.0 0.00 0.00 0.00 26 1013.7
20260506201534 77 297 0.0 0.0 0.00 0.00 0.00 27 1013.8
20260506200033 76 298 0.0 0.0 0.00 0.00 0.00 27 1014.1
20260506194528 77 274 0.0 0.0 0.00 0.00 0.00 28 1014.2
20260506193025 76 273 0.0 0.0 0.00 0.00 0.00 28 1014.4
20260506191524 75 286 0.0 0.0 0.00 0.00 0.00 30 1014.6
20260506190021 75 286 0.0 0.0 0.00 0.00 0.00 31 1014.8
20260506184519 74 286 0.0 0.0 0.00 0.00 0.00 31 1014.9
20260506183016 73 280 0.0 0.0 0.00 0.00 0.00 32 1015.0
20260506181519 71 280 0.0 0.0 0.00 0.00 0.00 33 1015.0
20260506180015 70 280 0.0 0.0 0.00 0.00 0.00 35 1015.1
20260506174510 70 258 0.0 0.0 0.00 0.00 0.00 35 1015.2
20260506173007 70 257 0.0 0.0 0.00 0.00 0.00 36 1015.1
20260506171510 69 257 0.0 0.0 0.00 0.00 0.00 38 1015.2
20260506170002 68 257 0.0 0.0 0.00 0.00 0.00 39 1015.2
20260506164559 66 257 0.0 0.0 0.00 0.00 0.00 42 1015.2
20260506163055 65 257 0.0 0.0 0.00 0.00 0.00 44 1015.2
20260506161603 64 252 0.0 0.0 0.00 0.00 0.00 46 1015.2
20260506160047 62 236 0.0 0.0 0.00 0.00 0.00 48 1015.3
20260506154543 60 235 0.0 0.0 0.00 0.00 0.00 51 1015.2
20260506153040 58 213 0.0 0.0 0.00 0.00 0.00 53 1015.2
20260506151553 58 209 0.0 0.0 0.00 0.00 0.00 54 1015.2
20260506150035 57 207 0.0 0.0 0.00 0.00 0.00 55 1015.1
20260506144533 57 206 0.0 0.0 0.00 0.00 0.00 56 1015.1
20260506143041 55 206 0.0 0.0 0.00 0.00 0.00 60 1015.1
20260506141524 52 206 0.0 0.0 0.00 0.00 0.00 69 1015.1
20260506140020 49 206 0.0 0.0 0.00 0.00 0.00 74 1014.8
20260506134519 47 206 0.0 0.0 0.00 0.00 0.00 77 1014.6
20260506133023 45 206 0.0 0.0 0.00 0.00 0.00 79 1014.7
20260506131519 44 206 0.0 0.0 0.00 0.00 0.00 79 1014.6
20260506130015 44 206 0.0 0.0 0.00 0.00 0.00 79 1014.3
20260506124511 44 206 0.0 0.0 0.00 0.00 0.00 79 1014.2
20260506123010 44 206 0.0 0.0 0.00 0.00 0.00 79 1014.0
20260506121510 44 206 0.0 0.0 0.00 0.00 0.00 79 1013.9
20260506120008 44 206 0.0 0.0 0.00 0.00 0.00 79 1014.1
20260506114507 45 206 0.0 0.0 0.00 0.00 0.00 78 1013.9
20260506113007 45 206 0.0 0.0 0.00 0.00 0.00 78 1013.8
20260506111503 45 206 0.0 0.0 0.00 0.00 0.00 78 1013.8
20260506110002 45 206 0.0 0.0 0.00 0.00 0.00 78 1013.7
20260506104501 46 206 0.0 0.0 0.00 0.00 0.00 78 1013.6
20260506103059 46 207 0.0 0.0 0.00 0.00 0.00 78 1013.6
20260506101603 46 207 0.0 0.0 0.00 0.00 0.00 78 1013.4
20260506100056 46 207 0.0 0.0 0.00 0.00 0.00 77 1013.4
20260506094559 46 207 0.0 0.0 0.00 0.00 0.00 78 1013.3
20260506093057 47 207 0.0 0.0 0.00 0.00 0.00 77 1013.2
20260506091552 47 207 0.0 0.0 0.00 0.00 0.00 77 1013.2
20260506090051 47 206 0.0 0.0 0.00 0.00 0.00 78 1013.2
20260506084552 47 197 0.0 0.0 0.00 0.00 0.00 78 1013.3
20260506083049 47 196 0.0 0.0 0.00 0.00 0.00 78 1013.2
20260506081548 47 198 0.0 0.0 0.00 0.00 0.00 77 1013.3
20260506073047 48 193 0.0 0.0 0.00 0.00 0.00 78 1013.3
20260506071600 48 193 0.0 0.0 0.00 0.00 0.00 77 1013.3
20260506061538 49 202 0.0 0.0 0.00 0.00 0.00 73 1013.2
20260506044531 50 192 0.0 0.0 0.00 0.00 0.00 69 1012.4
20260506043029 50 198 0.0 0.0 0.00 0.00 0.00 68 1012.3
20260506041531 51 202 0.0 0.0 0.00 0.00 0.00 65 1012.0
20260506040027 51 201 0.0 0.0 0.00 0.00 0.00 64 1011.8
20260506034522 52 207 0.0 0.0 0.00 0.00 0.00 63 1011.5
20260506033026 52 213 0.0 0.0 0.00 0.00 0.00 61 1011.3
20260506031524 53 209 0.0 0.0 0.00 0.00 0.00 60 1011.2
20260506030022 53 207 0.0 0.0 0.00 0.00 0.00 58 1011.1
20260506024515 54 190 0.0 0.0 0.00 0.00 0.00 57 1010.7
20260506023013 54 185 0.0 0.0 0.00 0.00 0.00 56 1010.5
20260506021511 55 190 0.0 0.0 0.00 0.00 0.00 55 1010.2
20260506020014 55 210 0.0 0.0 0.00 0.00 0.00 54 1010.1